FW9956 Weather Reports


Display with metric or nautical units.
time (UTC)temp
F
wind
direction
speed
MPH
gust
MPH
rain 1hr
in
rain 24hr
in
rain mn
in
humidity
%
barometer
mb
20260509101026 71 188 0.0 0.0 0.00 0.00 0.00 89 1006.9
20260509100523 71 181 0.0 1.0 0.00 0.00 0.00 89 1006.7
20260509100020 71 185 1.0 1.0 0.00 0.00 0.00 89 1006.6
20260509095517 71 185 0.0 0.0 0.00 0.00 0.00 89 1006.4
20260509095014 71 167 0.0 1.0 0.00 0.00 0.00 90 1006.5
20260509094510 71 202 1.0 1.0 0.00 0.00 0.00 90 1006.1
20260509094008 71 210 3.0 3.0 0.00 0.00 0.00 90 1006.1
20260509093506 71 138 1.0 2.0 0.00 0.00 0.00 90 1006.2
20260509093003 71 199 0.0 0.0 0.00 0.00 0.00 90 1006.5
20260509092501 71 189 0.0 0.0 0.00 0.00 0.00 90 1006.5
20260509091959 71 188 0.0 0.0 0.00 0.00 0.00 90 1006.4
20260509091456 71 190 0.0 0.0 0.00 0.00 0.00 90 1006.7
20260509090953 71 192 1.0 1.0 0.00 0.00 0.00 90 1006.2
20260509090450 71 194 1.0 1.0 0.00 0.00 0.00 90 1005.8
20260509085948 71 206 3.0 3.0 0.00 0.00 0.00 90 1005.5
20260509085444 71 184 3.0 3.0 0.00 0.00 0.00 90 1004.9
20260509084941 71 138 3.0 3.0 0.00 0.00 0.00 90 1005.1
20260509084438 71 202 3.0 3.0 0.00 0.00 0.00 90 1004.5
20260509083935 71 186 3.0 3.0 0.00 0.00 0.00 89 1004.5
20260509083432 71 191 3.0 3.0 0.00 0.00 0.00 89 1004.5
20260509082929 71 238 3.0 5.0 0.00 0.00 0.00 90 1004.5
20260509082426 71 152 4.0 7.0 0.00 0.00 0.00 90 1005.1
20260509081923 71 178 6.0 9.0 0.00 0.00 0.00 90 1005.3
20260509081420 71 153 5.0 6.0 0.00 0.00 0.00 90 1005.8
20260509080918 71 165 3.0 5.0 0.00 0.00 0.00 90 1005.9
20260509080415 71 186 3.0 3.0 0.00 0.00 0.00 90 1006.1
20260509075914 71 186 4.0 6.0 0.00 0.00 0.00 90 1006.6
20260509075410 71 125 2.0 3.0 0.00 0.00 0.00 89 1006.9
20260509074908 71 189 1.0 1.0 0.00 0.00 0.00 89 1007.3
20260509074405 71 235 3.0 5.0 0.00 0.00 0.00 89 1007.5
20260509073901 71 177 1.0 2.0 0.00 0.00 0.00 89 1007.4
20260509073358 71 233 2.0 5.0 0.00 0.00 0.00 89 1007.5
20260509072854 72 224 3.0 3.0 0.00 0.00 0.00 89 1008.0
20260509072351 72 182 3.0 3.0 0.00 0.00 0.00 89 1007.9
20260509071848 72 197 1.0 1.0 0.00 0.00 0.00 89 1008.1
20260509071345 71 192 4.0 6.0 0.00 0.00 0.00 89 1008.3
20260509070842 71 197 2.0 3.0 0.00 0.00 0.00 90 1008.4
20260509070338 71 195 2.0 2.0 0.00 0.00 0.00 90 1008.4
20260509065835 71 195 2.0 3.0 0.00 0.00 0.00 90 1008.8
20260509065331 71 195 0.0 1.0 0.00 0.00 0.00 90 1008.8
20260509064827 71 201 2.0 3.0 0.00 0.00 0.00 90 1008.6
20260509064325 71 213 1.0 2.0 0.00 0.00 0.00 89 1008.5
20260509063822 70 214 2.0 2.0 0.00 0.00 0.00 90 1008.6
20260509063318 70 196 0.0 0.0 0.00 0.00 0.00 89 1008.6
20260509062816 70 209 0.0 1.0 0.00 0.00 0.00 89 1008.6
20260509062313 70 204 0.0 1.0 0.00 0.00 0.00 89 1008.3
20260509061810 70 178 2.0 2.0 0.00 0.00 0.00 89 1008.6
20260509061308 70 192 0.0 0.0 0.00 0.00 0.00 89 1008.6
20260509060804 70 205 0.0 0.0 0.00 0.00 0.00 89 1008.7
20260509060301 70 180 0.0 0.0 0.00 0.00 0.00 89 1008.5
20260509055757 70 192 0.0 0.0 0.00 0.00 0.00 88 1008.8
20260509055253 71 183 0.0 0.0 0.00 0.00 0.00 88 1008.8
20260509054749 71 181 0.0 0.0 0.00 0.00 0.00 88 1008.7
20260509054246 71 195 0.0 0.0 0.00 0.00 0.00 87 1009.3
20260509053745 71 184 0.0 0.0 0.00 0.00 0.00 87 1009.3
20260509053241 72 187 0.0 0.0 0.00 0.00 0.00 86 1009.1
20260509052739 72 190 0.0 0.0 0.00 0.00 0.00 86 1009.4
20260509052237 72 188 0.0 0.0 0.00 0.00 0.00 86 1009.7
20260509051734 72 191 0.0 0.0 0.00 0.00 0.00 86 1009.6
20260509051232 72 172 1.0 1.0 0.00 0.00 0.00 86 1009.8
20260509050729 72 43 1.0 2.0 0.00 0.00 0.00 85 1009.2
20260509050225 72 191 0.0 0.0 0.00 0.00 0.00 85 1008.7
20260509045723 73 183 0.0 0.0 0.00 0.00 0.00 84 1008.3
20260509045219 73 182 1.0 1.0 0.00 0.00 0.00 84 1008.4
20260509044717 73 185 0.0 0.0 0.00 0.00 0.00 84 1008.3
20260509044214 73 192 1.0 2.0 0.00 0.00 0.00 83 1008.5
20260509043710 73 186 0.0 0.0 0.00 0.00 0.00 83 1008.5
20260509043206 73 194 0.0 0.0 0.00 0.00 0.00 83 1008.6
20260509042703 73 193 1.0 2.0 0.00 0.00 0.00 83 1008.4
20260509042159 73 201 1.0 1.0 0.00 0.00 0.00 83 1008.3
20260509041656 73 190 0.0 0.0 0.00 0.00 0.00 83 1008.2
20260509041153 73 185 1.0 1.0 0.00 0.00 0.00 82 1008.1
20260509040651 73 184 0.0 1.0 0.00 0.00 0.00 82 1008.0
20260509040148 73 186 1.0 1.0 0.00 0.00 0.00 82 1007.8
20260509035645 73 193 2.0 2.0 0.00 0.00 0.00 82 1008.1
20260509035141 74 193 1.0 2.0 0.00 0.00 0.00 82 1007.9
20260509034639 74 140 2.0 2.0 0.00 0.00 0.00 81 1008.5
20260509034136 74 186 0.0 0.0 0.00 0.00 0.00 81 1008.9
20260509033633 74 187 0.0 0.0 0.00 0.00 0.00 81 1009.0
20260509033130 74 194 0.0 0.0 0.00 0.00 0.00 81 1008.7
20260509032627 74 187 0.0 0.0 0.00 0.00 0.00 81 1008.5
20260509032124 73 187 0.0 0.0 0.00 0.00 0.00 81 1008.3
20260509031622 73 198 1.0 1.0 0.00 0.00 0.00 81 1008.3
20260509031119 73 176 0.0 1.0 0.00 0.00 0.00 81 1008.2
20260509030617 73 179 0.0 1.0 0.00 0.00 0.00 81 1008.0
20260509030114 73 190 0.0 1.0 0.00 0.00 0.00 81 1007.9
20260509025610 73 188 1.0 2.0 0.00 0.00 0.00 81 1007.7
20260509025106 73 106 1.0 2.0 0.00 0.00 0.00 81 1007.5
20260509024602 73 146 1.0 3.0 0.00 0.00 0.00 81 1007.6
20260509024058 73 188 2.0 3.0 0.00 0.00 0.00 81 1007.3
20260509023556 73 190 1.0 1.0 0.00 0.00 0.00 81 1007.3
20260509023052 73 192 1.0 1.0 0.00 0.00 0.00 81 1007.0
20260509022548 73 176 2.0 2.0 0.00 0.00 0.00 80 1007.0
20260509022047 73 110 2.0 2.0 0.00 0.00 0.00 80 1007.1
20260509021543 73 197 1.0 1.0 0.00 0.00 0.00 80 1007.0
20260509021041 74 188 2.0 2.0 0.00 0.00 0.00 80 1006.7
20260509020539 74 183 0.0 1.0 0.00 0.00 0.00 79 1007.2
20260509020035 74 179 0.0 1.0 0.00 0.00 0.00 79 1006.8
20260509015535 74 120 1.0 2.0 0.00 0.00 0.00 79 1006.6
20260509015031 74 161 1.0 3.0 0.00 0.00 0.00 79 1006.8
20260509014528 74 151 2.0 2.0 0.00 0.00 0.00 79 1006.9
20260509014024 74 192 1.0 2.0 0.00 0.00 0.00 79 1006.8
20260509013521 74 144 0.0 1.0 0.00 0.00 0.00 79 1006.9
20260509013016 74 175 1.0 1.0 0.00 0.00 0.00 78 1007.1
20260509012514 74 179 0.0 0.0 0.00 0.00 0.00 78 1007.0
20260509012010 74 199 2.0 2.0 0.00 0.00 0.00 78 1007.1
20260509011508 75 205 0.0 0.0 0.00 0.00 0.00 78 1007.0
20260509011005 75 182 1.0 2.0 0.00 0.00 0.00 78 1007.0
20260509010503 74 169 1.0 1.0 0.00 0.00 0.00 77 1006.6
20260509005959 74 208 2.0 3.0 0.00 0.00 0.00 77 1006.6
20260509005458 74 172 1.0 2.0 0.00 0.00 0.00 77 1006.7
20260509004957 74 177 2.0 3.0 0.00 0.00 0.00 77 1006.3
20260509004455 75 184 2.0 3.0 0.00 0.00 0.00 77 1006.2
20260509003952 75 163 2.0 3.0 0.00 0.00 0.00 77 1006.5
20260509003450 75 209 2.0 2.0 0.00 0.00 0.00 77 1006.3
20260509002947 75 191 3.0 3.0 0.00 0.00 0.00 76 1006.4
20260509002445 75 170 3.0 5.0 0.00 0.00 0.00 76 1006.2
20260509001942 75 204 1.0 2.0 0.00 0.00 0.00 76 1006.3
20260509001438 75 165 2.0 5.0 0.00 0.00 0.00 76 1006.1
20260509000935 75 214 1.0 2.0 0.00 0.00 0.00 75 1006.1
20260509000433 75 159 1.0 1.0 0.00 0.00 0.00 75 1006.4
20260508235928 75 188 2.0 2.0 0.00 0.00 0.00 75 1006.3
20260508235427 75 155 3.0 5.0 0.00 0.00 0.00 74 1006.6
20260508234923 75 180 2.0 2.0 0.00 0.00 0.00 74 1006.7
20260508234420 75 168 2.0 2.0 0.00 0.00 0.00 73 1006.8
20260508233918 75 199 1.0 2.0 0.00 0.00 0.00 73 1006.7
20260508233417 75 158 2.0 3.0 0.00 0.00 0.00 73 1006.6
20260508232913 76 202 2.0 2.0 0.00 0.00 0.00 72 1006.9
20260508232410 76 174 2.0 3.0 0.00 0.00 0.00 71 1006.9
20260508231908 76 213 3.0 5.0 0.00 0.00 0.00 71 1006.8
20260508231404 77 190 0.0 0.0 0.00 0.00 0.00 71 1007.0
20260508230901 77 173 1.0 3.0 0.00 0.00 0.00 70 1007.0
20260508230358 78 199 1.0 1.0 0.00 0.00 0.00 68 1006.9
20260508225855 78 184 1.0 1.0 0.00 0.00 0.00 68 1006.8
20260508225351 77 201 1.0 1.0 0.00 0.00 0.00 69 1006.9
20260508224850 77 190 3.0 6.0 0.00 0.00 0.00 68 1006.8
20260508224347 77 126 2.0 3.0 0.00 0.00 0.00 67 1006.9
20260508223844 77 168 2.0 3.0 0.00 0.00 0.00 68 1006.8
20260508223341 77 186 0.0 1.0 0.00 0.00 0.00 70 1006.8
20260508222839 76 148 3.0 5.0 0.00 0.00 0.00 70 1006.7
20260508222336 76 192 6.0 7.0 0.00 0.00 0.00 70 1006.8
20260508221833 76 192 5.0 6.0 0.00 0.00 0.00 69 1006.8
20260508221328 77 162 5.0 7.0 0.00 0.00 0.00 68 1007.0
20260508220825 77 185 2.0 3.0 0.00 0.00 0.00 68 1006.8
20260508220321 77 195 1.0 2.0 0.00 0.00 0.00 68 1006.7
20260508215818 78 209 3.0 3.0 0.00 0.00 0.00 66 1006.6
20260508215314 78 205 2.0 3.0 0.00 0.00 0.00 66 1006.9
20260508214812 78 199 5.0 6.0 0.00 0.00 0.00 66 1007.0
20260508214308 78 173 3.0 5.0 0.00 0.00 0.00 66 1007.1
20260508213805 77 217 0.0 1.0 0.00 0.00 0.00 67 1007.0
20260508213302 78 206 4.0 5.0 0.00 0.00 0.00 65 1007.0
20260508212758 77 168 2.0 3.0 0.00 0.00 0.00 66 1007.2
20260508212254 76 183 1.0 2.0 0.00 0.00 0.00 68 1007.0
20260508211750 76 162 2.0 5.0 0.00 0.00 0.00 67 1007.5
20260508211246 76 196 3.0 6.0 0.00 0.00 0.00 67 1007.3
20260508210744 77 188 3.0 3.0 0.00 0.00 0.00 66 1007.2
20260508210241 77 205 3.0 3.0 0.00 0.00 0.00 66 1007.2
20260508205737 77 186 2.0 3.0 0.00 0.00 0.00 66 1007.4
20260508205234 76 144 3.0 3.0 0.00 0.00 0.00 67 1007.5
20260508204730 75 232 1.0 1.0 0.00 0.00 0.00 72 1007.7
20260508204221 73 149 3.0 3.0 0.00 0.00 0.00 74 1008.0
20260508203717 73 174 1.0 2.0 0.00 0.00 0.00 74 1008.4
20260508203213 73 215 3.0 3.0 0.00 0.00 0.00 71 1008.7
20260508202710 73 186 3.0 5.0 0.00 0.00 0.00 70 1008.7
20260508202207 73 141 1.0 2.0 0.00 0.00 0.00 71 1009.2
20260508201704 74 182 2.0 2.0 0.00 0.00 0.00 71 1009.2
20260508201200 74 217 5.0 7.0 0.00 0.00 0.00 70 1009.3
20260508200657 74 182 3.0 5.0 0.00 0.00 0.00 70 1009.1
20260508200153 75 147 4.0 6.0 0.00 0.00 0.00 70 1009.0
20260508195650 75 181 2.0 3.0 0.00 0.00 0.00 69 1009.3
20260508195146 76 201 3.0 3.0 0.00 0.00 0.00 69 1009.1
20260508194643 76 193 0.0 1.0 0.00 0.00 0.00 68 1008.8
20260508194140 76 185 2.0 2.0 0.00 0.00 0.00 68 1008.8
20260508193637 76 146 1.0 1.0 0.00 0.00 0.00 69 1008.9
20260508193133 75 205 5.0 8.0 0.00 0.00 0.00 69 1009.0
20260508192630 75 102 1.0 2.0 0.00 0.00 0.00 69 1008.9
20260508192127 76 228 3.0 7.0 0.00 0.00 0.00 69 1009.1
20260508191624 76 183 2.0 6.0 0.00 0.00 0.00 69 1009.1
20260508191120 76 150 3.0 3.0 0.00 0.00 0.00 68 1009.0
20260508190618 76 193 1.0 2.0 0.00 0.00 0.00 69 1009.3
20260508190114 77 134 1.0 1.0 0.00 0.00 0.00 68 1009.1
20260508185611 77 319 2.0 3.0 0.00 0.00 0.00 67 1009.2
20260508185108 77 137 1.0 2.0 0.00 0.00 0.00 67 1009.2
20260508184606 77 207 2.0 3.0 0.00 0.00 0.00 67 1009.4
20260508184103 80 205 3.0 5.0 0.00 0.00 0.00 63 1009.3
20260508183559 80 227 2.0 2.0 0.00 0.00 0.00 64 1009.4
20260508183055 79 210 2.0 2.0 0.00 0.00 0.00 64 1009.4
20260508182552 79 242 1.0 2.0 0.00 0.00 0.00 65 1009.6
20260508182049 79 198 0.0 1.0 0.00 0.00 0.00 64 1009.3
20260508181543 78 242 4.0 6.0 0.00 0.00 0.00 63 1009.6
20260508181042 78 142 1.0 2.0 0.00 0.00 0.00 64 1009.9
20260508180538 78 201 1.0 2.0 0.00 0.00 0.00 65 1010.3
20260508180034 78 192 1.0 1.0 0.00 0.00 0.00 65 1010.1
20260508175531 78 162 2.0 2.0 0.00 0.00 0.00 63 1010.2
20260508175028 78 190 1.0 2.0 0.00 0.00 0.00 64 1010.2
20260508174526 79 178 1.0 1.0 0.00 0.00 0.00 63 1010.1
20260508174023 77 184 1.0 1.0 0.00 0.00 0.00 64 1010.1
20260508173519 77 147 3.0 3.0 0.00 0.00 0.00 64 1010.4
20260508173016 77 225 3.0 6.0 0.00 0.00 0.00 65 1010.3
20260508172513 77 197 1.0 2.0 0.00 0.00 0.00 64 1010.4
20260508172009 77 149 1.0 1.0 0.00 0.00 0.00 63 1010.6
20260508171506 77 215 1.0 2.0 0.00 0.00 0.00 62 1010.5
20260508171002 76 193 1.0 2.0 0.00 0.00 0.00 62 1010.6
20260508170500 76 169 3.0 3.0 0.00 0.00 0.00 62 1010.9
20260508165956 75 205 3.0 5.0 0.00 0.00 0.00 63 1011.0
20260508165455 74 179 1.0 2.0 0.00 0.00 0.00 64 1011.1
20260508164950 74 219 3.0 5.0 0.00 0.00 0.00 63 1011.4
20260508164448 73 180 1.0 1.0 0.00 0.00 0.00 65 1011.4
20260508163944 74 188 1.0 1.0 0.00 0.00 0.00 65 1011.4
20260508163443 73 139 0.0 1.0 0.00 0.00 0.00 66 1011.6
20260508162938 72 193 0.0 1.0 0.00 0.00 0.00 67 1011.8
20260508162436 72 149 2.0 3.0 0.00 0.00 0.00 66 1012.0
20260508161932 72 213 3.0 3.0 0.00 0.00 0.00 66 1011.7
20260508161429 72 225 4.0 6.0 0.00 0.00 0.00 65 1012.1
20260508160927 72 201 1.0 1.0 0.00 0.00 0.00 66 1012.0
20260508160426 72 183 2.0 3.0 0.00 0.00 0.00 65 1011.9
20260508155921 73 70 3.0 3.0 0.00 0.00 0.00 65 1012.0
20260508155419 72 138 3.0 6.0 0.00 0.00 0.00 65 1012.1
20260508154915 71 230 3.0 3.0 0.00 0.00 0.00 67 1012.2
20260508154413 71 122 0.0 1.0 0.00 0.00 0.00 67 1012.1
20260508153909 70 174 2.0 2.0 0.00 0.00 0.00 68 1012.2
20260508153407 70 193 1.0 2.0 0.00 0.00 0.00 69 1012.4
20260508152903 69 194 1.0 2.0 0.00 0.00 0.00 69 1012.4
20260508152359 70 140 1.0 2.0 0.00 0.00 0.00 69 1012.2
20260508151856 69 132 0.0 1.0 0.00 0.00 0.00 69 1012.5
20260508151353 69 177 1.0 1.0 0.00 0.00 0.00 69 1012.4
20260508150849 69 183 1.0 2.0 0.00 0.00 0.00 70 1012.7
20260508150346 69 162 1.0 3.0 0.00 0.00 0.00 70 1012.5
20260508145842 69 168 1.0 1.0 0.00 0.00 0.00 70 1012.4
20260508145338 68 187 1.0 2.0 0.00 0.00 0.00 70 1012.6
20260508144835 68 214 1.0 2.0 0.00 0.00 0.00 71 1012.4
20260508144333 68 190 1.0 1.0 0.00 0.00 0.00 71 1012.7
20260508143830 68 123 1.0 2.0 0.00 0.00 0.00 71 1012.6
20260508143327 68 189 2.0 3.0 0.00 0.00 0.00 70 1012.5
20260508142824 67 177 2.0 2.0 0.00 0.00 0.00 70 1012.6
20260508142321 67 341 2.0 3.0 0.00 0.00 0.00 71 1012.7
20260508141817 67 188 5.0 6.0 0.00 0.00 0.00 70 1012.5
20260508141314 67 130 1.0 3.0 0.00 0.00 0.00 71 1013.0
20260508140812 67 123 4.0 5.0 0.00 0.00 0.00 71 1012.8
20260508140309 67 172 0.0 0.0 0.00 0.00 0.00 72 1012.8
20260508135804 68 185 2.0 3.0 0.00 0.00 0.00 72 1012.8
20260508135300 68 212 3.0 3.0 0.00 0.00 0.00 70 1012.8
20260508134756 67 195 2.0 2.0 0.00 0.00 0.00 72 1012.8
20260508134253 67 182 3.0 5.0 0.00 0.00 0.00 74 1012.6
20260508133750 67 193 1.0 1.0 0.00 0.00 0.00 75 1012.6
20260508133248 67 185 0.0 1.0 0.00 0.00 0.00 75 1012.4
20260508132745 66 147 1.0 1.0 0.00 0.00 0.00 76 1012.8
20260508132242 66 189 0.0 1.0 0.00 0.00 0.00 77 1012.6
20260508131738 66 186 0.0 0.0 0.00 0.00 0.00 78 1012.8
20260508131235 65 177 0.0 0.0 0.00 0.00 0.00 78 1012.6
20260508130731 65 189 0.0 1.0 0.00 0.00 0.00 80 1012.8
20260508130229 64 157 0.0 1.0 0.00 0.00 0.00 81 1012.8
20260508125724 64 195 0.0 0.0 0.00 0.00 0.00 81 1012.9
20260508125220 64 161 2.0 3.0 0.00 0.00 0.00 82 1012.6
20260508124719 64 187 0.0 0.0 0.00 0.00 0.00 82 1012.8
20260508124216 63 189 0.0 1.0 0.00 0.00 0.00 83 1012.9
20260508123714 63 179 0.0 0.0 0.00 0.00 0.00 83 1012.8
20260508123212 63 184 0.0 0.0 0.00 0.00 0.00 83 1013.1
20260508122708 63 192 0.0 0.0 0.00 0.00 0.00 83 1012.9
20260508122205 63 190 0.0 0.0 0.00 0.00 0.00 83 1013.0
20260508121702 63 184 0.0 0.0 0.00 0.00 0.00 83 1013.0
20260508121201 63 187 0.0 0.0 0.00 0.00 0.00 83 1012.9
20260508120657 63 161 3.0 5.0 0.00 0.00 0.00 84 1013.0
20260508120156 63 187 1.0 2.0 0.00 0.00 0.00 84 1012.7
20260508115653 63 191 0.0 0.0 0.00 0.00 0.00 85 1012.7
20260508115150 63 190 0.0 0.0 0.00 0.00 0.00 86 1013.1
20260508114647 63 177 0.0 0.0 0.00 0.00 0.00 86 1013.0
20260508114143 63 191 0.0 0.0 0.00 0.00 0.00 87 1013.2
20260508113640 63 172 0.0 0.0 0.00 0.00 0.00 87 1013.0
20260508113139 63 185 0.0 0.0 0.00 0.00 0.00 87 1012.9
20260508112634 63 186 0.0 0.0 0.00 0.00 0.00 87 1012.9
20260508112131 63 185 0.0 0.0 0.00 0.00 0.00 87 1012.8
20260508111628 63 193 0.0 0.0 0.00 0.00 0.00 87 1012.6
20260508111126 63 185 0.0 0.0 0.00 0.00 0.00 87 1012.5
20260508110623 63 188 0.0 0.0 0.00 0.00 0.00 87 1012.4
20260508110119 63 187 0.0 0.0 0.00 0.00 0.00 87 1012.5
20260508105614 63 183 0.0 0.0 0.00 0.00 0.00 87 1012.3
20260508105112 63 164 1.0 1.0 0.00 0.00 0.00 88 1012.5
20260508104609 63 177 1.0 2.0 0.00 0.00 0.00 88 1012.6
20260508104105 63 195 0.0 0.0 0.00 0.00 0.00 88 1013.4
20260508103603 63 192 1.0 1.0 0.00 0.00 0.00 87 1013.6
20260508103100 63 193 0.0 0.0 0.00 0.00 0.00 87 1013.2
20260508102557 63 190 0.0 0.0 0.00 0.00 0.00 87 1012.6
20260508102055 63 183 0.0 0.0 0.00 0.00 0.00 86 1012.4
20260508101552 63 186 0.0 0.0 0.00 0.00 0.00 86 1011.9